User: anonymous   Login
Location: Buttermere
(51.3333°N, 1.5167°W)
Time: 15:35:49
(UTC+00:00)
Language:

Cosmos 1536 Rocket - Orbit

View from above orbital plane
View from above orbital plane
View from above satellite
View from above satellite

Ground track
Ground track

The orbit data is extracted from the following two-line orbital elements,

1 14700U 84013B   20340.46677465  .00000112  00000-0  10645-4 0  9996
2 14700  82.5389  52.8113 0021244 108.7632 262.1511 14.83307756988859
Epoch (UTC): 05 December 2020 11:12:09
Eccentricity: 0.0021244
inclination: 82.5389°
perigee height: 604 km
apogee height: 634 km
right ascension of ascending node: 52.8113°
argument of perigee: 108.7632°
revolutions per day: 14.83307756
mean anomaly at epoch: 262.1511°
orbit number at epoch: 98885

The dashed part of the orbit path shows where the satellite is in the earth's shadow,  

DLR